This is the latest recevied weather packets stored in our database for station/object K6CED. If no packets are shown the sender has not sent any weather packets the latest 10 day(s).
| Time | Temp. | Humidity | Pressure | Rain* | Wind** | Luminosity | Snow |
|---|---|---|---|---|---|---|---|
| 1787704936 | 34.44° C | 41% | 1014.8 hPa | 0 mm | - | 159 W/m² | - |
| 1787704633 | 34.44° C | 41% | 1014.8 hPa | 0 mm | - | 175 W/m² | - |
| 1787704329 | 34.44° C | 41% | 1014.8 hPa | 0 mm | - | 192 W/m² | - |
| 1787704028 | 34.44° C | 40% | 1014.6 hPa | 0 mm | - | 207 W/m² | - |
| 1787703727 | 34.44° C | 40% | 1014.6 hPa | 0 mm | - | 222 W/m² | - |
| 1787703423 | 33.89° C | 41% | 1014.6 hPa | 0 mm | - | 239 W/m² | - |
| 1787703118 | 34.44° C | 40% | 1014.5 hPa | 0 mm | - | 262 W/m² | - |
| 1787702814 | 34.44° C | 40% | 1014.6 hPa | 0 mm | - | 279 W/m² | - |
| 1787702509 | 35° C | 39% | 1014.6 hPa | 0 mm | - | 298 W/m² | - |
| 1787702205 | 35° C | 39% | 1014.7 hPa | 0 mm | - | 316 W/m² | - |
| 1787701899 | 35° C | 38% | 1014.6 hPa | 0 mm | - | 328 W/m² | - |
| 1787701595 | 35.56° C | 37% | 1014.5 hPa | 0 mm | - | 343 W/m² | - |
| 1787701290 | 35.56° C | 38% | 1014.4 hPa | 0 mm | - | 354 W/m² | - |
| 1787700986 | 35.56° C | 37% | 1014.4 hPa | 0 mm | - | 370 W/m² | - |
| 1787700681 | 35.56° C | 37% | 1014.4 hPa | 0 mm | - | 386 W/m² | - |
| 1787700378 | 36.11° C | 36% | 1014.5 hPa | 0 mm | - | 405 W/m² | - |
| 1787700073 | 35.56° C | 36% | 1014.5 hPa | 0 mm | - | 426 W/m² | - |
| 1787699769 | 36.11° C | 36% | 1014.5 hPa | 0 mm | - | 447 W/m² | - |
| 1787699463 | 36.11° C | 36% | 1014.8 hPa | 0 mm | - | 465 W/m² | - |
| 1787699160 | 36.11° C | 36% | 1015.1 hPa | 0 mm | - | 478 W/m² | - |
| 1787698855 | 36.11° C | 36% | 1014.9 hPa | 0 mm | - | 496 W/m² | - |
| 1787698551 | 35.56° C | 36% | 1014.7 hPa | 0 mm | - | 520 W/m² | - |
| 1787698247 | 36.11° C | 36% | 1014.9 hPa | 0 mm | - | 539 W/m² | - |
| 1787697942 | 35.56° C | 36% | 1014.6 hPa | 0 mm | - | 554 W/m² | - |
| 1787697642 | 36.67° C | 36% | 1014.8 hPa | 0 mm | - | 569 W/m² | - |
* Rain latest hour (hover to see other rain measurements)
** Current wind speed in m/s (hover to see current wind gust speed)